📊 Raw Sensor Data
Showing records 46476 to 46500 of 85,071 total
| ID | Distance (ft) | Battery V | Battery A | Int Temp (°F) | Int Humid (%) | Ext Temp (°F) | Solar V | RSSI | SNR | Time Stamp |
|---|---|---|---|---|---|---|---|---|---|---|
| 38608 | -- | 3.96 | 0 | 43 | 40 | 47 | 4.50 | -87 | 7 | 04/23/2025 06:45 AM |
| 38607 | -- | 3.94 | -8 | 42 | 40 | 45 | 4.50 | -83 | 7 | 04/23/2025 06:30 AM |
| 38606 | -- | 3.94 | -9 | 41 | 41 | 43 | 3.50 | -89 | 7 | 04/23/2025 06:15 AM |
| 38605 | -- | 3.95 | -5 | 41 | 41 | 42 | 0.40 | -85 | 8 | 04/23/2025 06:01 AM |
| 38604 | -- | 3.95 | -5 | 42 | 41 | 44 | 0.00 | -89 | 7 | 04/23/2025 05:45 AM |
| 38603 | -- | 3.89 | -5 | 42 | 41 | 44 | 0.00 | -84 | 8 | 04/23/2025 05:31 AM |
| 38602 | -- | 3.89 | -5 | 41 | 42 | 44 | 0.10 | -83 | 8 | 04/23/2025 05:15 AM |
| 38601 | -- | 3.89 | -5 | 41 | 42 | 43 | 0.00 | -84 | 9 | 04/23/2025 05:00 AM |
| 38600 | -- | 3.89 | -5 | 41 | 42 | 44 | 0.00 | -84 | 7 | 04/23/2025 04:45 AM |
| 38599 | -- | 3.90 | -5 | 42 | 42 | 43 | 0.10 | -84 | 8 | 04/23/2025 04:30 AM |
| 38598 | -- | 3.90 | -5 | 43 | 42 | 45 | 0.10 | -87 | 7 | 04/23/2025 04:15 AM |
| 38597 | -- | 3.96 | -5 | 45 | 41 | 46 | 0.10 | -84 | 8 | 04/23/2025 04:00 AM |
| 38596 | -- | 3.96 | -5 | 46 | 41 | 47 | 0.00 | -83 | 8 | 04/23/2025 03:45 AM |
| 38595 | -- | 3.96 | -5 | 46 | 41 | 48 | 0.00 | -84 | 8 | 04/23/2025 03:30 AM |
| 38594 | -- | 3.90 | -5 | 46 | 41 | 47 | 0.00 | -85 | 8 | 04/23/2025 03:16 AM |
| 38593 | -- | 3.90 | -5 | 46 | 41 | 47 | 0.00 | -84 | 8 | 04/23/2025 03:01 AM |
| 38592 | -- | 3.90 | -5 | 45 | 42 | 47 | 0.00 | -86 | 7 | 04/23/2025 02:45 AM |
| 38591 | -- | 3.90 | -5 | 45 | 42 | 46 | 0.00 | -85 | 8 | 04/23/2025 02:30 AM |
| 38590 | -- | 3.90 | -5 | 46 | 42 | 46 | 0.00 | -83 | 8 | 04/23/2025 02:15 AM |
| 38589 | -- | 3.90 | -5 | 47 | 42 | 48 | 0.00 | -85 | 7 | 04/23/2025 01:45 AM |
| 38588 | -- | 3.91 | -5 | 48 | 42 | 49 | 0.10 | -84 | 8 | 04/23/2025 01:30 AM |
| 38587 | -- | 3.91 | -5 | 48 | 42 | 50 | 0.00 | -93 | 7 | 04/23/2025 01:15 AM |
| 38586 | -- | 3.91 | -5 | 48 | 42 | 50 | 0.10 | -100 | 5 | 04/23/2025 01:00 AM |
| 38585 | -- | 3.97 | -5 | 49 | 42 | 50 | 0.00 | -85 | 8 | 04/23/2025 12:45 AM |
| 38584 | -- | 3.91 | -5 | 49 | 42 | 50 | 0.00 | -87 | 8 | 04/23/2025 12:30 AM |